Voltar ao catálogo

CZ-3B R/B

AtivoHEO
NORAD 44205·ROCKET BODY·🇨🇳 China

Lançado Apr 20, 2019 de Xichang Satellite Launch Center

Loading…

Próximas Passagens (próximas 24 horas)

TLE

AtualizadoSource: Space-Track

Época: Sep 14, 2026, 12:27 UTC

1 44205U 19023B   26257.51899584  .00306737 -11451-6  10577-2 0  9998
2 44205  28.2000 333.4670 4574368  28.2404 350.4229  6.56527139 99582

Acompanhe CZ-3B R/B em tempo real com AllMySat

Download on the App Store